Погода в Прокопьевке

Россия / Республика Коми     59°16′49″N   49°40′37″E
темп.,
°C
ветер,
м/с
пор.,
м/с
влажн.,
%
обл.,
%
осадки,
мм/ч
давл.,
гПа
погр.,
м
4 июля, пн
пн400:00+10с228487 0.0 101520
03:00+8св2596100 0.0 101684
06:00+12св376760 0.0 1016356
09:00+16св46505 0.0 10161297
12:00+19св45375 0.0 10161639
15:00+20св4535100 0.0 10161927
18:00+18всв2554100 0.0 1016305
21:00+12юв1175100 0.0 101710
5 июля, вт
вт500:00+10зюз117397 0.0 101710
03:00+9зсз227675 0.0 101822
06:00+14зсз236599 0.0 1018201
09:00+20ссз234415 0.0 1017964
12:00+24ссз22335 0.0 10161714
15:00+24сз23325 0.0 10151863
18:00+23з22540 0.0 101574
21:00+16з11650 0.0 101511
6 июля, ср
ср600:00+13з22720 0.0 101532
03:00+12з23790 0.0 101552
06:00+17зюз24645 0.0 1014177
09:00+23зюз23501 0.0 1014645
12:00+27зюз24393 0.0 10132253
15:00+28з333789 0.0 10122286
18:00+23з236569 0.0 1012102
21:00+18зюз22805 0.0 101320
7 июля, чт
чт700:00+17ююз228320 0.0 101326
03:00+16ююз239316 0.0 101364
06:00+20ююз35775 0.0 1014245
09:00+25ююз455738 0.0 1013917
12:00+28ююз454719 0.0 10131983
15:00+26юз3755100 0.0 1012658
18:00+25ююз496595 0.0 1012769
21:00+20юз399199 0.6 1012198
8 июля, пт
пт800:00+18зюз2396100 2.7 101362
03:00+17з2699100 2.8 1014218
06:00+17сз3597100 0.1 1015419
09:00+17зсз3484100 0.1 1016632
12:00+21зсз34575 0.0 10161017
15:00+24сз34460 0.0 10161630
18:00+22ссз24580 0.0 1016481
21:00+17з11732 0.0 101611